[[{"header":{"parameterUnit":"m.s-1","parameterCategory":1,"la1":30.2991,"la2":30.254,"lo1":-89.0895,"lo2":-89.0444,"dy":0.0017,"dx":0.0017,"nx":28,"ny":28,"refTime":"2024-05-13T09:00:00:Z","depth":0,"parameterNumber":2,"parameterNumberName":"U-component_of_WINDS"},"data":[0,0,0,0,0,0,0,0,0,0,0,0,0,0,0,0,0,0,0,0,0,0,0,0,0,0,0,0,0,0,0,0,0,0,0,0,0,0,0,0,0,0,0,0,0,0,0,0,0,0,0,0,0,0,0,0,0,0,-6.7181,-6.7182,0,-6.7233,-6.7233,-6.7234,-6.715,-6.7147,-6.7145,-6.7142,-6.7191,-6.7194,-6.7198,0,0,0,0,0,0,0,0,0,0,0,0,0,-6.7007,-6.701,-6.7181,-6.7182,-6.7182,-6.7233,-6.7233,-6.7234,-6.7151,-6.7147,-6.7144,-6.7141,-6.7189,-6.7194,-6.7199,0,0,0,0,0,0,0,0,0,0,0,0,0,-6.7073,-6.7011,-6.7181,-6.7147,-6.7144,-6.7232,-6.7233,-6.7234,-6.7152,-6.7147,-6.7143,-6.7139,-6.7188,-6.7194,-6.7199,-6.7322,0,0,-6.7218,-6.722,0,0,0,0,0,0,0,0,-6.7069,-6.7079,-6.7151,-6.715,-6.7147,-6.7181,-6.7189,-6.7263,-6.7153,-6.7149,-6.7142,-6.7137,-6.7191,-6.7196,-6.7215,-6.7324,-6.7326,-6.7218,-6.7222,-6.7224,-6.7226,0,0,0,0,0,0,0,-6.7065,-6.7076,-6.7201,-6.7152,-6.715,-6.7128,-6.7133,-6.7203,-6.7193,-6.7149,-6.7143,-6.715,-6.7188,-6.7209,-6.7215,-6.7327,-6.7218,-6.7223,-6.7227,-6.7229,-6.7536,-6.7541,0,0,0,0,0,0,-6.7065,-6.7073,-6.72,-6.7203,-6.7097,-6.7135,-6.714,-6.7174,-6.7192,-6.7191,-6.7154,-6.7146,-6.7201,-6.7209,-6.7217,-6.7358,-6.7224,-6.723,-6.7233,-6.7532,-6.7537,-6.7542,0,0,0,0,0,0,-6.7061,-6.7077,-6.7197,-6.7137,-6.715,-6.7142,-6.7181,-6.7177,-6.7198,-6.7196,-6.7193,-6.7177,-6.7198,-6.7208,-6.7296,-6.7359,-6.7232,-6.7238,-6.7526,-6.7533,-6.754,-6.7644,0,0,0,0,0,0,-6.7057,-6.7076,-6.7123,-6.7138,-6.7154,-6.7277,-6.7185,-6.7181,-6.7209,-6.72,-6.7217,-6.7216,-6.7196,-6.7288,-6.7302,-6.7365,-6.7242,-6.752,-6.753,-6.7538,-6.7635,-6.7654,-6.767,0,0,0,0,0,-6.7051,-6.715,-6.7126,-6.7142,-6.7213,-6.7281,-6.729,-6.7265,-6.7215,-6.7261,-6.726,-6.7215,-6.7351,-6.7297,-6.7313,-6.7378,-6.7516,-6.7527,-6.7537,-6.7627,-6.765,-6.767,0,0,0,0,0,0,-6.7141,-6.7151,-6.7125,-6.7232,-6.7257,-6.7267,-6.7324,-6.7291,-6.7329,-6.7318,-6.7286,-6.7291,-6.7384,-6.7391,-6.7331,-6.7497,-6.7425,-6.7439,-6.7488,-6.751,-6.7527,-6.7521,-6.7247,0,0,0,0,0,-6.7174,-6.7229,-6.7235,-6.7329,-6.7343,-6.7332,-6.7361,-6.7341,-6.7364,-6.7373,-6.7378,-6.7401,-6.7449,-6.748,-6.7524,-6.7637,-6.7638,-6.769,-6.7708,-6.7722,-6.7733,-6.7791,-6.7813,-6.7576,-6.7576,-6.7576,0,0,-6.724,-6.7253,-6.729,-6.7348,-6.7364,-6.7421,-6.7341,-6.7405,-6.7446,-6.7382,-6.7464,-6.747,-6.7493,-6.7594,-6.7638,-6.7602,-6.7799,-6.7735,-6.7747,-6.775,-6.7804,-6.7826,-6.7846,-6.7583,-6.7582,-6.7581,0,0,-6.7391,-6.7408,-6.7487,-6.7506,-6.7532,-6.7525,-6.7544,-6.756,-6.7561,-6.7644,-6.7597,-6.7646,-6.7729,-6.7747,-6.7767,-6.7927,-6.7886,-6.7942,-6.8032,-6.8088,-6.8107,-6.8123,-6.8176,-6.8196,-6.7954,-6.7955,-6.7955,0,-6.747,-6.7555,-6.7532,-6.7599,-6.7624,-6.7572,-6.765,-6.767,-6.7709,-6.7727,-6.7687,-6.779,-6.7803,-6.7905,-6.7944,-6.7964,-6.7982,-6.7938,-6.8107,-6.8123,-6.8137,-6.8188,-6.8208,-6.7961,-6.796,-6.7959,-6.7959,0,-6.765,-6.771,-6.777,-6.781,-6.7844,-6.7916,-6.7902,-6.7938,-6.7916,-6.7913,-6.7997,-6.8011,-6.8055,-6.8079,-6.8058,-6.8179,-6.8155,-6.8112,-6.8038,-6.8166,-6.8213,-6.8233,-6.797,-6.7968,-6.7966,-6.7964,0,0,-6.7854,-6.7882,-6.7904,-6.7921,-6.7948,-6.7993,-6.8063,-6.8108,-6.8138,-6.8169,-6.8224,-6.8297,-6.8257,-6.828,-6.8261,-6.8312,-6.8433,-6.8261,-6.8261,-6.8289,-6.8563,-6.8592,-6.8615,-6.8409,-6.8413,-6.8416,-6.856,0,-6.8001,-6.8122,-6.8104,-6.822,-6.8274,-6.8226,-6.8287,-6.8309,-6.8309,-6.8353,-6.8352,-6.8402,-6.8348,-6.8361,-6.8409,-6.8408,-6.8487,-6.8398,-6.8457,-6.8459,-6.8448,-6.864,-6.8671,-6.8807,-6.8578,-6.8582,-6.8584,0,-6.8187,-6.8225,-6.8347,-6.8364,-6.8386,-6.8441,-6.848,-6.8525,-6.8549,-6.8545,-6.8572,-6.8543,-6.8612,-6.8541,-6.8633,-6.8573,-6.8597,-6.8601,-6.8605,-6.8606,-6.8526,-6.8642,-6.885,-6.8868,-6.8613,-6.8611,-6.8609,0,-6.8319,-6.8401,-6.8484,-6.85,-6.8524,-6.8563,-6.8575,-6.8595,-6.8623,-6.8658,-6.8675,-6.8718,-6.874,-6.8773,-6.8756,-6.8707,-6.8851,-6.8779,-6.8846,-6.8846,-6.8874,-6.8872,-6.9084,-6.8898,-6.8898,-6.8897,-6.8897,0,-6.8482,-6.8558,-6.8543,-6.8593,-6.8676,-6.8655,-6.8737,-6.8743,-6.8762,-6.8811,-6.8774,-6.8821,-6.8799,-6.8844,-6.8832,-6.8908,-6.892,-6.8916,-6.8911,-6.8917,-6.8916,-6.8928,-6.8916,-6.8903,-6.8901,-6.89,-6.8899,0,-6.8641,-6.8635,-6.8722,-6.8738,-6.8744,-6.8804,-6.8817,-6.8863,-6.8861,-6.8924,-6.8938,-6.8933,-6.8985,-6.8973,-6.9029,-6.9021,-6.9116,-6.9101,-6.9107,-6.9102,-6.9168,-6.916,-6.9392,-6.9419,-6.9219,-6.9221,-6.9223,0,-6.8743,-6.88,-6.8823,-6.8854,-6.8869,-6.892,-6.8949,-6.8931,-6.8962,-6.8995,-6.9037,-6.9085,-6.9122,-6.9207,-6.9207,-6.925,-6.9233,-6.9312,-6.9239,-6.9242,-6.9229,-6.9224,-6.9228,-6.9324,-6.9326,-6.9328,-6.933,0,-6.8924,-6.8918,-6.8962,-6.9005,-6.9041,-6.9074,-6.9103,-6.9131,-6.9115,-6.9152,-6.9204,-6.9234,-6.9292,-6.9339,-6.9379,-6.9388,-6.9356,-6.9354,-6.937,-6.9374,-6.9374,-6.9371,-6.9142,-6.9347,-6.9345,-6.9344,-6.9343,-6.9342,-6.9055,-6.9102,-6.9126,-6.9176,-6.9196,-6.9224,-6.9268,-6.9272,-6.9316,-6.9362,-6.935,-6.9409,-6.9431,-6.9481,-6.9496,-6.9541,-6.9511,-6.9537,-6.9542,-6.9548,-6.9554,-6.9371,-6.9549,-6.9548,-6.9548,-6.9547,-6.9547,0,-6.923,-6.9243,-6.9289,-6.9332,-6.9371,-6.934,-6.9371,-6.9404,-6.9457,-6.9482,-6.952,-6.958,-6.9626,-6.9632,-6.9675,-6.971,-6.9696,-6.9721,-6.9716,-6.9718,-6.958,-6.9559,-6.9732,-6.9732,-6.9732,-6.9732,-6.9732,-6.9732,-6.9325,-6.9403,-6.9401,-6.9488,-6.9501,-6.9559,-6.9579,-6.9604,-6.9623,-6.9692,-6.9731,-6.9735,-6.9751,-6.9796,-6.9836,-6.9837,-6.9852,-6.9883,-6.9877,-6.9747,-6.9728,-6.971,-6.969,-6.9888,-6.9888,-7.0011,-7.0012,-7.0013]},{"header":{"parameterUnit":"m.s-1","parameterCategory":1,"la1":30.2991,"la2":30.254,"lo1":-89.0895,"lo2":-89.0444,"dy":0.0017,"dx":0.0017,"nx":28,"ny":28,"refTime":"2024-05-13T09:00:00:Z","depth":0,"parameterNumber":3,"parameterNumberName":"V-component_of_WINDS"},"data":[0,0,0,0,0,0,0,0,0,0,0,0,0,0,0,0,0,0,0,0,0,0,0,0,0,0,0,0,0,0,0,0,0,0,0,0,0,0,0,0,0,0,0,0,0,0,0,0,0,0,0,0,0,0,0,0,0,0,4.4693,4.4693,0,4.4714,4.4715,4.4715,4.463,4.4628,4.4625,4.4623,4.4643,4.4646,4.4649,0,0,0,0,0,0,0,0,0,0,0,0,0,4.4578,4.4581,4.4693,4.4693,4.4693,4.4714,4.4715,4.4715,4.463,4.4627,4.4624,4.4621,4.4642,4.4646,4.4649,0,0,0,0,0,0,0,0,0,0,0,0,0,4.4617,4.4581,4.4693,4.4654,4.465,4.4714,4.4715,4.4715,4.4631,4.4627,4.4624,4.462,4.4641,4.4645,4.465,4.4752,0,0,4.4663,4.4665,0,0,0,0,0,0,0,0,4.4615,4.4621,4.4659,4.4657,4.4653,4.4666,4.4682,4.4727,4.4632,4.4638,4.4623,4.4618,4.4654,4.4657,4.4669,4.4753,4.4753,4.4663,4.4666,4.4668,4.4669,0,0,0,0,0,0,0,4.4612,4.462,4.4701,4.466,4.4656,4.4635,4.4636,4.469,4.4667,4.4638,4.4631,4.4635,4.4651,4.4665,4.4669,4.4754,4.4663,4.4667,4.467,4.4671,4.4923,4.4927,0,0,0,0,0,0,4.4615,4.4618,4.4701,4.4702,4.4624,4.464,4.4642,4.4665,4.4666,4.4663,4.4638,4.4631,4.4659,4.4664,4.4669,4.4788,4.4668,4.4672,4.4674,4.4919,4.4924,4.4928,0,0,0,0,0,0,4.4612,4.4623,4.47,4.4658,4.4666,4.4646,4.4674,4.4668,4.4681,4.4667,4.4662,4.4657,4.4657,4.4663,4.4732,4.4788,4.4674,4.4678,4.4914,4.492,4.4926,4.5028,0,0,0,0,0,0,4.461,4.4623,4.4661,4.466,4.4669,4.4762,4.4677,4.4671,4.4689,4.468,4.4683,4.4679,4.4654,4.4726,4.4736,4.4792,4.4681,4.4909,4.4917,4.4924,4.5019,4.5036,4.5051,0,0,0,0,0,4.4606,4.4688,4.4663,4.4674,4.4717,4.4766,4.4771,4.4741,4.4694,4.4732,4.4723,4.4679,4.4781,4.4734,4.4745,4.4802,4.4905,4.4914,4.4923,4.5012,4.5033,4.5051,0,0,0,0,0,0,4.4695,4.4687,4.4659,4.4744,4.4756,4.4751,4.4798,4.4764,4.4789,4.4779,4.474,4.4742,4.4817,4.4817,4.4765,4.4901,4.4835,4.4847,4.4898,4.4918,4.4934,4.4932,4.4685,0,0,0,0,0,4.4725,4.4766,4.4757,4.4832,4.484,4.4819,4.4839,4.4815,4.4826,4.483,4.4826,4.4838,4.4872,4.4896,4.4927,4.502,4.5019,4.5065,4.5081,4.5094,4.5104,4.5153,4.5173,4.4958,4.4958,4.4958,0,0,4.4786,4.4787,4.4815,4.485,4.4857,4.49,4.4823,4.4872,4.4903,4.4837,4.4902,4.49,4.4911,4.4992,4.5028,4.4994,4.5164,4.5106,4.5117,4.5119,4.5165,4.5185,4.5203,4.4964,4.4963,4.4962,0,0,4.4919,4.4925,4.4988,4.4997,4.5009,4.4994,4.501,4.5011,4.5007,4.5072,4.5024,4.5061,4.5121,4.5131,4.5144,4.5284,4.5244,4.5295,4.5378,4.5427,4.5444,4.5458,4.5508,4.5526,4.5306,4.5306,4.5306,0,4.4994,4.5057,4.5025,4.5077,4.5094,4.5038,4.5102,4.5112,4.5134,4.5146,4.5109,4.5184,4.5188,4.5271,4.5305,4.5318,4.5334,4.5293,4.5444,4.5458,4.5472,4.5518,4.5537,4.5312,4.5311,4.5311,4.531,0,4.5147,4.5192,4.5242,4.5265,4.5288,4.5346,4.5323,4.535,4.5325,4.5315,4.5382,4.5385,4.5415,4.5434,4.5409,4.5514,4.5493,4.5451,4.5382,4.5499,4.5542,4.5559,4.5321,4.5319,4.5317,4.5315,0,0,4.5334,4.5341,4.5359,4.5369,4.5379,4.5413,4.5469,4.55,4.5524,4.5541,4.5587,4.5641,4.5602,4.5617,4.5594,4.5637,4.5747,4.5589,4.5589,4.5617,4.5862,4.5892,4.5913,4.5722,4.5725,4.5728,4.586,0,4.5464,4.5559,4.5534,4.5629,4.567,4.5619,4.5668,4.568,4.5673,4.5706,4.5698,4.5737,4.5683,4.5692,4.5733,4.5725,4.5795,4.5715,4.5763,4.5765,4.576,4.5936,4.5967,4.6092,4.5877,4.588,4.5882,0,4.5627,4.5652,4.5752,4.5756,4.5772,4.5817,4.5843,4.5877,4.5889,4.5881,4.59,4.5868,4.5923,4.5858,4.5933,4.5879,4.5898,4.5898,4.5902,4.5903,4.5829,4.594,4.6131,4.6149,4.5908,4.5906,4.5904,0,4.5752,4.5811,4.5878,4.5888,4.5895,4.5928,4.5932,4.5941,4.5962,4.5986,4.5999,4.6029,4.6045,4.6069,4.6047,4.6001,4.6126,4.6058,4.612,4.6121,4.6146,4.6144,4.6341,4.6162,4.6162,4.6161,4.6161,0,4.5898,4.5961,4.5934,4.5975,4.6044,4.6015,4.6084,4.6083,4.6092,4.6132,4.6091,4.6129,4.6098,4.6134,4.6118,4.6182,4.619,4.6185,4.6179,4.6187,4.6188,4.6197,4.6187,4.6166,4.6165,4.6164,4.6163,0,4.6048,4.6033,4.6103,4.6105,4.6107,4.6158,4.6159,4.6197,4.6188,4.624,4.625,4.6236,4.6276,4.6257,4.6299,4.6288,4.6371,4.6355,4.6367,4.6362,4.6425,4.6419,4.6632,4.6659,4.6464,4.6466,4.6468,0,4.6141,4.6189,4.6196,4.6221,4.6228,4.6268,4.6289,4.6263,4.6287,4.6307,4.6343,4.638,4.6407,4.6474,4.6468,4.65,4.6483,4.6556,4.6487,4.6494,4.6482,4.6479,4.6483,4.6569,4.6571,4.6573,4.6574,0,4.6308,4.6299,4.6331,4.6363,4.639,4.6412,4.6431,4.6454,4.6429,4.6458,4.6499,4.6521,4.6565,4.6602,4.663,4.6635,4.6601,4.6597,4.6612,4.662,4.6624,4.6622,4.6403,4.6591,4.6589,4.6588,4.6587,4.6587,4.6431,4.6471,4.6483,4.6522,4.6534,4.6553,4.6589,4.6586,4.662,4.6654,4.6637,4.6685,4.6698,4.6733,4.6742,4.6779,4.675,4.6773,4.6779,4.6784,4.6792,4.6621,4.6784,4.6784,4.6784,4.6783,4.6783,0,4.6595,4.6601,4.6637,4.6666,4.6696,4.6663,4.6683,4.671,4.6753,4.6769,4.6798,4.6846,4.6882,4.6879,4.6913,4.6943,4.6928,4.6953,4.6949,4.6951,4.6817,4.6799,4.6964,4.6964,4.6964,4.6964,4.6964,4.6964,4.6684,4.6749,4.6742,4.6814,4.6819,4.6866,4.688,4.6898,4.691,4.6966,4.6996,4.6995,4.7003,4.7037,4.7069,4.7067,4.7081,4.7111,4.7104,4.6978,4.696,4.6943,4.6926,4.7115,4.7115,4.7234,4.7235,4.7236]}]]